Time,TemperatureF,DewpointF,PressureIn,WindDirection,WindDirectionDegrees,WindSpeedMPH,WindSpeedGustMPH,Humidity,HourlyPrecipIn,Conditions,Clouds,dailyrainin,SoftwareType,DateUTC
2013-03-09 00:01:00,41.6,27.9,30.28,ESE,120,0.0,0.0,58,0.00,,,0.00,Wunderground v.1.15,2013-03-09 05:01:00,
2013-03-09 00:02:00,41.6,27.9,30.28,ESE,120,0.0,0.0,58,0.00,,,0.00,Wunderground v.1.15,2013-03-09 05:02:00,
2013-03-09 00:04:00,41.6,27.9,30.29,ESE,120,0.0,0.0,58,0.00,,,0.00,Wunderground v.1.15,2013-03-09 05:04:00,
2013-03-09 00:07:00,41.6,27.9,30.29,ESE,120,0.0,0.0,58,0.00,,,0.00,Wunderground v.1.15,2013-03-09 05:07:00,
2013-03-09 00:13:00,41.5,27.4,30.29,SE,125,0.0,0.0,57,0.00,,,0.00,Wunderground v.1.15,2013-03-09 05:13:00,
2013-03-09 00:18:00,41.6,27.9,30.30,SE,125,0.0,0.0,58,0.00,,,0.00,Wunderground v.1.15,2013-03-09 05:18:00,
2013-03-09 00:24:00,41.5,27.8,30.30,SE,127,0.0,0.0,58,0.00,,,0.00,Wunderground v.1.15,2013-03-09 05:24:00,
2013-03-09 00:29:00,41.3,28.0,30.30,SE,125,0.0,0.0,59,0.00,,,0.00,Wunderground v.1.15,2013-03-09 05:29:00,
2013-03-09 00:34:00,41.1,28.3,30.30,SE,128,0.0,0.0,60,0.00,,,0.00,Wunderground v.1.15,2013-03-09 05:34:00,
2013-03-09 00:40:00,40.9,27.7,30.30,SE,128,0.0,0.0,59,0.00,,,0.00,Wunderground v.1.15,2013-03-09 05:40:00,
2013-03-09 00:45:00,41.0,27.8,30.30,SE,127,0.0,0.0,59,0.00,,,0.00,Wunderground v.1.15,2013-03-09 05:45:00,
2013-03-09 00:51:00,41.1,27.9,30.30,ENE,73,0.0,0.0,59,0.00,,,0.00,Wunderground v.1.15,2013-03-09 05:51:00,
2013-03-09 00:57:00,41.0,27.8,30.30,ESE,115,0.0,0.0,59,0.00,,,0.00,Wunderground v.1.15,2013-03-09 05:57:00,
2013-03-09 01:02:00,41.0,27.8,30.30,ESE,117,0.0,0.0,59,0.00,,,0.00,Wunderground v.1.15,2013-03-09 06:02:00,
2013-03-09 01:07:00,41.0,27.8,30.30,ESE,110,0.0,0.0,59,0.00,,,0.00,Wunderground v.1.15,2013-03-09 06:07:00,
2013-03-09 01:13:00,41.0,27.8,30.30,ESE,113,0.0,0.0,59,0.00,,,0.00,Wunderground v.1.15,2013-03-09 06:13:00,
2013-03-09 01:18:00,40.9,27.7,30.30,ESE,120,0.0,0.0,59,0.00,,,0.00,Wunderground v.1.15,2013-03-09 06:18:00,
2013-03-09 01:24:00,40.8,27.6,30.30,SE,143,0.0,0.0,59,0.00,,,0.00,Wunderground v.1.15,2013-03-09 06:24:00,
2013-03-09 01:29:00,40.8,27.6,30.30,SE,142,0.0,0.0,59,0.00,,,0.00,Wunderground v.1.15,2013-03-09 06:29:00,
2013-03-09 01:35:00,40.7,27.5,30.30,SE,143,0.0,0.0,59,0.00,,,0.00,Wunderground v.1.15,2013-03-09 06:35:00,
2013-03-09 01:40:00,40.7,27.9,30.30,SE,141,0.0,0.0,60,0.00,,,0.00,Wunderground v.1.15,2013-03-09 06:40:00,
2013-03-09 01:45:00,40.7,27.5,30.30,SE,141,0.0,0.0,59,0.00,,,0.00,Wunderground v.1.15,2013-03-09 06:45:00,
2013-03-09 01:51:00,40.6,27.4,30.30,SE,141,0.0,0.0,59,0.00,,,0.00,Wunderground v.1.15,2013-03-09 06:51:00,
2013-03-09 01:57:00,40.4,27.6,30.30,SE,141,0.0,0.0,60,0.00,,,0.00,Wunderground v.1.15,2013-03-09 06:57:00,
2013-03-09 02:02:00,40.3,27.5,30.29,SE,139,0.0,0.0,60,0.00,,,0.00,Wunderground v.1.15,2013-03-09 07:02:00,
2013-03-09 02:08:00,40.3,27.9,30.29,SE,128,0.0,0.0,61,0.00,,,0.00,Wunderground v.1.15,2013-03-09 07:08:00,
2013-03-09 02:13:00,40.3,27.9,30.29,ESE,113,0.0,0.0,61,0.00,,,0.00,Wunderground v.1.15,2013-03-09 07:13:00,
2013-03-09 02:18:00,40.1,28.1,30.29,ESE,113,0.0,0.0,62,0.00,,,0.00,Wunderground v.1.15,2013-03-09 07:18:00,
2013-03-09 02:23:00,40.0,28.0,30.29,ESE,113,0.0,0.0,62,0.00,,,0.00,Wunderground v.1.15,2013-03-09 07:23:00,
2013-03-09 02:29:00,39.7,27.7,30.29,ESE,113,0.0,0.0,62,0.00,,,0.00,Wunderground v.1.15,2013-03-09 07:29:00,
2013-03-09 02:35:00,39.6,27.6,30.28,ESE,113,0.0,0.0,62,0.00,,,0.00,Wunderground v.1.15,2013-03-09 07:35:00,
2013-03-09 02:41:00,39.5,27.9,30.28,ESE,113,0.0,0.0,63,0.00,,,0.00,Wunderground v.1.15,2013-03-09 07:41:00,
2013-03-09 02:46:00,39.3,27.7,30.27,ESE,113,0.0,0.0,63,0.00,,,0.00,Wunderground v.1.15,2013-03-09 07:46:00,
2013-03-09 02:52:00,39.1,27.6,30.27,ESE,113,0.0,0.0,63,0.00,,,0.00,Wunderground v.1.15,2013-03-09 07:52:00,
2013-03-09 02:58:00,39.0,27.5,30.27,ESE,113,0.0,0.0,63,0.00,,,0.00,Wunderground v.1.15,2013-03-09 07:58:00,
2013-03-09 03:03:00,38.8,27.3,30.26,ESE,113,0.0,0.0,63,0.00,,,0.00,Wunderground v.1.15,2013-03-09 08:03:00,
2013-03-09 03:08:00,38.6,27.5,30.26,ESE,113,0.0,0.0,64,0.00,,,0.00,Wunderground v.1.15,2013-03-09 08:08:00,
2013-03-09 03:14:00,38.4,27.7,30.26,ESE,113,0.0,0.0,65,0.00,,,0.00,Wunderground v.1.15,2013-03-09 08:14:00,
2013-03-09 03:19:00,38.1,27.4,30.26,ESE,113,0.0,0.0,65,0.00,,,0.00,Wunderground v.1.15,2013-03-09 08:19:00,
2013-03-09 03:25:00,37.9,27.9,30.26,ESE,113,0.0,0.0,67,0.00,,,0.00,Wunderground v.1.15,2013-03-09 08:25:00,
2013-03-09 03:30:00,37.7,27.7,30.27,ESE,113,0.0,0.0,67,0.00,,,0.00,Wunderground v.1.15,2013-03-09 08:30:00,
2013-03-09 03:36:00,37.5,27.2,30.26,ESE,113,0.0,0.0,66,0.00,,,0.00,Wunderground v.1.15,2013-03-09 08:36:00,
2013-03-09 03:41:00,37.5,27.2,30.27,ESE,113,0.0,0.0,66,0.00,,,0.00,Wunderground v.1.15,2013-03-09 08:41:00,
2013-03-09 03:47:00,37.6,28.3,30.27,ESE,113,0.0,0.0,69,0.00,,,0.00,Wunderground v.1.15,2013-03-09 08:47:00,
2013-03-09 03:53:00,37.4,27.8,30.27,ESE,113,0.0,0.0,68,0.00,,,0.00,Wunderground v.1.15,2013-03-09 08:53:00,
2013-03-09 03:58:00,37.2,27.6,30.28,ESE,113,0.0,0.0,68,0.00,,,0.00,Wunderground v.1.15,2013-03-09 08:58:00,
2013-03-09 04:04:00,36.8,27.6,30.28,ESE,113,0.0,0.0,69,0.00,,,0.00,Wunderground v.1.15,2013-03-09 09:04:00,
2013-03-09 04:09:00,36.6,27.7,30.28,ESE,113,0.0,0.0,70,0.00,,,0.00,Wunderground v.1.15,2013-03-09 09:09:00,
2013-03-09 04:15:00,36.4,27.9,30.28,ESE,113,0.0,0.0,71,0.00,,,0.00,Wunderground v.1.15,2013-03-09 09:15:00,
2013-03-09 04:21:00,36.3,27.4,30.28,ESE,113,0.0,0.0,70,0.00,,,0.00,Wunderground v.1.15,2013-03-09 09:21:00,
2013-03-09 04:26:00,36.5,28.0,30.28,ESE,113,0.0,0.0,71,0.00,,,0.00,Wunderground v.1.15,2013-03-09 09:26:00,
2013-03-09 04:31:00,36.6,27.4,30.28,ESE,113,0.0,0.0,69,0.00,,,0.00,Wunderground v.1.15,2013-03-09 09:31:00,
2013-03-09 04:37:00,36.9,27.7,30.28,ESE,113,0.0,0.0,69,0.00,,,0.00,Wunderground v.1.15,2013-03-09 09:37:00,
2013-03-09 04:42:00,37.1,27.5,30.28,NNW,339,0.0,0.0,68,0.00,,,0.00,Wunderground v.1.15,2013-03-09 09:42:00,
2013-03-09 04:48:00,37.4,27.8,30.28,NNW,339,0.0,0.0,68,0.00,,,0.00,Wunderground v.1.15,2013-03-09 09:48:00,
2013-03-09 04:54:00,37.5,27.9,30.28,NNW,339,0.0,0.0,68,0.00,,,0.00,Wunderground v.1.15,2013-03-09 09:54:00,
2013-03-09 04:59:00,37.5,27.5,30.28,NNW,338,0.0,0.0,67,0.00,,,0.00,Wunderground v.1.15,2013-03-09 09:59:00,
2013-03-09 05:05:00,37.4,27.8,30.28,NNW,339,0.0,0.0,68,0.00,,,0.00,Wunderground v.1.15,2013-03-09 10:05:00,
2013-03-09 05:10:00,37.3,27.7,30.29,NNW,339,0.0,0.0,68,0.00,,,0.00,Wunderground v.1.15,2013-03-09 10:10:00,
2013-03-09 05:16:00,37.0,27.8,30.29,NNW,339,0.0,0.0,69,0.00,,,0.00,Wunderground v.1.15,2013-03-09 10:16:00,
2013-03-09 05:22:00,36.9,27.7,30.29,NNW,338,0.0,0.0,69,0.00,,,0.00,Wunderground v.1.15,2013-03-09 10:22:00,
2013-03-09 05:27:00,36.7,28.2,30.29,NW,324,0.0,0.0,71,0.00,,,0.00,Wunderground v.1.15,2013-03-09 10:27:00,
2013-03-09 05:32:00,36.6,28.1,30.29,NW,325,0.0,0.0,71,0.00,,,0.00,Wunderground v.1.15,2013-03-09 10:32:00,
2013-03-09 05:37:00,36.5,27.6,30.29,NW,325,0.0,0.0,70,0.00,,,0.00,Wunderground v.1.15,2013-03-09 10:37:00,
2013-03-09 05:43:00,36.3,27.8,30.29,NW,324,0.0,0.0,71,0.00,,,0.00,Wunderground v.1.15,2013-03-09 10:43:00,
2013-03-09 05:48:00,36.1,27.9,30.29,NW,325,0.0,0.0,72,0.00,,,0.00,Wunderground v.1.15,2013-03-09 10:48:00,
2013-03-09 05:54:00,35.7,27.9,30.29,NW,325,0.0,0.0,73,0.00,,,0.00,Wunderground v.1.15,2013-03-09 10:54:00,
2013-03-09 05:59:00,35.5,27.7,30.29,NW,325,0.0,0.0,73,0.00,,,0.00,Wunderground v.1.15,2013-03-09 10:59:00,
2013-03-09 06:05:00,35.3,27.5,30.29,NW,324,0.0,0.0,73,0.00,,,0.00,Wunderground v.1.15,2013-03-09 11:05:00,
2013-03-09 06:10:00,35.1,27.6,30.29,NW,324,0.0,0.0,74,0.00,,,0.00,Wunderground v.1.15,2013-03-09 11:10:00,
2013-03-09 06:16:00,35.0,27.9,30.29,NW,325,0.0,0.0,75,0.00,,,0.00,Wunderground v.1.15,2013-03-09 11:16:00,
2013-03-09 06:21:00,34.8,27.7,30.30,NW,325,0.0,0.0,75,0.00,,,0.00,Wunderground v.1.15,2013-03-09 11:21:00,
2013-03-09 06:27:00,34.7,27.6,30.30,NW,324,0.0,0.0,75,0.00,,,0.00,Wunderground v.1.15,2013-03-09 11:27:00,
2013-03-09 06:33:00,34.5,27.4,30.30,NW,325,0.0,0.0,75,0.00,,,0.00,Wunderground v.1.15,2013-03-09 11:33:00,
2013-03-09 06:38:00,34.3,27.5,30.30,NW,324,0.0,0.0,76,0.00,,,0.00,Wunderground v.1.15,2013-03-09 11:38:00,
2013-03-09 06:44:00,34.3,27.8,30.30,NW,325,0.0,0.0,77,0.00,,,0.00,Wunderground v.1.15,2013-03-09 11:44:00,
2013-03-09 06:50:00,34.1,27.6,30.30,NW,325,0.0,0.0,77,0.00,,,0.00,Wunderground v.1.15,2013-03-09 11:50:00,
2013-03-09 06:55:00,34.1,28.0,30.30,NW,324,0.0,0.0,78,0.00,,,0.00,Wunderground v.1.15,2013-03-09 11:55:00,
2013-03-09 07:01:00,33.9,27.4,30.31,NW,324,0.0,0.0,77,0.00,,,0.00,Wunderground v.1.15,2013-03-09 12:01:00,
2013-03-09 07:07:00,33.9,27.4,30.31,NW,325,0.0,0.0,77,0.00,,,0.00,Wunderground v.1.15,2013-03-09 12:07:00,
2013-03-09 07:13:00,34.0,27.9,30.31,NW,324,0.0,0.0,78,0.00,,,0.00,Wunderground v.1.15,2013-03-09 12:13:00,
2013-03-09 07:19:00,34.2,27.7,30.32,NW,324,0.0,0.0,77,0.00,,,0.00,Wunderground v.1.15,2013-03-09 12:19:00,
2013-03-09 07:24:00,34.5,28.3,30.32,NW,324,0.0,0.0,78,0.00,,,0.00,Wunderground v.1.15,2013-03-09 12:24:00,
2013-03-09 07:30:00,35.0,28.2,30.32,NW,325,0.0,0.0,76,0.00,,,0.00,Wunderground v.1.15,2013-03-09 12:30:00,
2013-03-09 07:35:00,35.6,28.5,30.32,NW,324,0.0,0.0,75,0.00,,,0.00,Wunderground v.1.15,2013-03-09 12:35:00,
2013-03-09 07:41:00,36.4,28.2,30.32,NW,325,0.0,0.0,72,0.00,,,0.00,Wunderground v.1.15,2013-03-09 12:41:00,
2013-03-09 07:46:00,37.5,28.6,30.32,NE,46,0.0,0.0,70,0.00,,,0.00,Wunderground v.1.15,2013-03-09 12:46:00,
2013-03-09 07:51:00,39.3,29.6,30.33,NE,46,0.0,0.0,68,0.00,,,0.00,Wunderground v.1.15,2013-03-09 12:51:00,
2013-03-09 07:56:00,41.1,30.2,30.33,NE,40,0.0,1.0,65,0.00,,,0.00,Wunderground v.1.15,2013-03-09 12:56:00,
2013-03-09 15:00:00,65.9,30.0,30.24,ENE,78,0.0,1.0,26,0.00,,,0.00,Wunderground v.1.15,2013-03-09 20:00:00,
2013-03-09 15:05:00,65.5,30.6,30.24,ENE,78,0.0,1.0,27,0.00,,,0.00,Wunderground v.1.15,2013-03-09 20:05:00,
2013-03-09 15:11:00,65.9,30.9,30.24,ENE,78,0.0,0.0,27,0.00,,,0.00,Wunderground v.1.15,2013-03-09 20:11:00,
2013-03-09 15:16:00,65.6,30.7,30.24,SE,134,0.0,2.0,27,0.00,,,0.00,Wunderground v.1.15,2013-03-09 20:16:00,
2013-03-09 15:21:00,65.8,29.9,30.24,SE,133,0.0,0.0,26,0.00,,,0.00,Wunderground v.1.15,2013-03-09 20:21:00,
2013-03-09 15:27:00,65.9,30.9,30.24,ESE,114,0.0,0.0,27,0.00,,,0.00,Wunderground v.1.15,2013-03-09 20:27:00,
2013-03-09 15:32:00,66.1,32.0,30.24,SSE,156,0.0,0.0,28,0.00,,,0.00,Wunderground v.1.15,2013-03-09 20:32:00,
2013-03-09 15:37:00,66.1,31.1,30.24,East,94,0.0,0.0,27,0.00,,,0.00,Wunderground v.1.15,2013-03-09 20:37:00,
2013-03-09 15:43:00,65.7,29.8,30.24,WSW,256,0.0,0.0,26,0.00,,,0.00,Wunderground v.1.15,2013-03-09 20:43:00,
2013-03-09 15:48:00,65.4,30.5,30.24,WSW,255,0.0,0.0,27,0.00,,,0.00,Wunderground v.1.15,2013-03-09 20:48:00,
2013-03-09 15:54:00,64.9,29.2,30.24,ENE,75,0.0,1.0,26,0.00,,,0.00,Wunderground v.1.15,2013-03-09 20:54:00,
2013-03-09 15:59:00,64.4,28.7,30.23,ENE,75,0.0,1.0,26,0.00,,,0.00,Wunderground v.1.15,2013-03-09 20:59:00,
2013-03-09 16:05:00,64.0,30.2,30.23,ENE,74,0.0,0.0,28,0.00,,,0.00,Wunderground v.1.15,2013-03-09 21:05:00,
2013-03-09 16:10:00,63.7,29.1,30.23,North,8,0.0,0.0,27,0.00,,,0.00,Wunderground v.1.15,2013-03-09 21:10:00,
2013-03-09 16:15:00,63.3,30.5,30.23,East,91,0.0,0.0,29,0.00,,,0.00,Wunderground v.1.15,2013-03-09 21:15:00,
2013-03-09 16:21:00,62.9,28.4,30.23,East,79,0.0,1.0,27,0.00,,,0.00,Wunderground v.1.15,2013-03-09 21:21:00,
2013-03-09 16:26:00,62.6,29.0,30.23,East,79,0.0,1.0,28,0.00,,,0.00,Wunderground v.1.15,2013-03-09 21:26:00,
2013-03-09 16:31:00,62.4,29.7,30.23,East,79,0.0,0.0,29,0.00,,,0.00,Wunderground v.1.15,2013-03-09 21:31:00,
2013-03-09 16:37:00,62.1,29.4,30.23,East,79,0.0,0.0,29,0.00,,,0.00,Wunderground v.1.15,2013-03-09 21:37:00,
2013-03-09 16:42:00,62.2,29.5,30.23,SW,222,0.0,0.0,29,0.00,,,0.00,Wunderground v.1.15,2013-03-09 21:42:00,
2013-03-09 16:47:00,62.2,28.7,30.23,SW,222,0.0,0.0,28,0.00,,,0.00,Wunderground v.1.15,2013-03-09 21:47:00,
2013-03-09 16:53:00,61.9,29.3,30.23,SW,228,0.0,0.0,29,0.00,,,0.00,Wunderground v.1.15,2013-03-09 21:53:00,
2013-03-09 16:58:00,61.9,30.9,30.23,SW,228,0.0,0.0,31,0.00,,,0.00,Wunderground v.1.15,2013-03-09 21:58:00,
2013-03-09 17:04:00,61.7,30.7,30.23,SW,228,0.0,0.0,31,0.00,,,0.00,Wunderground v.1.15,2013-03-09 22:04:00,
2013-03-09 17:09:00,61.3,28.7,30.23,SE,125,0.0,0.0,29,0.00,,,0.00,Wunderground v.1.15,2013-03-09 22:09:00,
2013-03-09 17:14:00,61.0,30.1,30.23,SE,125,0.0,0.0,31,0.00,,,0.00,Wunderground v.1.15,2013-03-09 22:14:00,
2013-03-09 17:20:00,60.6,31.3,30.23,SE,125,0.0,0.0,33,0.00,,,0.00,Wunderground v.1.15,2013-03-09 22:20:00,
2013-03-09 17:25:00,60.3,28.7,30.23,SE,129,0.0,0.0,30,0.00,,,0.00,Wunderground v.1.15,2013-03-09 22:25:00,
2013-03-09 17:30:00,60.0,29.2,30.24,SE,129,0.0,0.0,31,0.00,,,0.00,Wunderground v.1.15,2013-03-09 22:30:00,
2013-03-09 17:36:00,59.7,29.0,30.24,SE,128,0.0,0.0,31,0.00,,,0.00,Wunderground v.1.15,2013-03-09 22:36:00,
2013-03-09 17:41:00,59.4,28.7,30.24,SE,129,0.0,0.0,31,0.00,,,0.00,Wunderground v.1.15,2013-03-09 22:41:00,
2013-03-09 17:46:00,59.1,29.2,30.24,SE,129,0.0,0.0,32,0.00,,,0.00,Wunderground v.1.15,2013-03-09 22:46:00,
2013-03-09 17:52:00,58.7,28.9,30.24,SE,129,0.0,0.0,32,0.00,,,0.00,Wunderground v.1.15,2013-03-09 22:52:00,
2013-03-09 17:58:00,58.3,29.3,30.24,SE,128,0.0,0.0,33,0.00,,,0.00,Wunderground v.1.15,2013-03-09 22:58:00,
2013-03-09 18:03:00,57.8,29.6,30.25,SE,129,0.0,0.0,34,0.00,,,0.00,Wunderground v.1.15,2013-03-09 23:03:00,
2013-03-09 18:08:00,57.4,30.6,30.25,SE,129,0.0,0.0,36,0.00,,,0.00,Wunderground v.1.15,2013-03-09 23:08:00,
2013-03-09 18:14:00,56.8,30.8,30.25,SE,128,0.0,0.0,37,0.00,,,0.00,Wunderground v.1.15,2013-03-09 23:14:00,
2013-03-09 18:19:00,56.2,31.5,30.25,SE,129,0.0,0.0,39,0.00,,,0.00,Wunderground v.1.15,2013-03-09 23:19:00,
2013-03-09 18:24:00,55.6,31.6,30.25,SE,129,0.0,0.0,40,0.00,,,0.00,Wunderground v.1.15,2013-03-09 23:24:00,
2013-03-09 18:30:00,54.9,31.6,30.25,SE,129,0.0,0.0,41,0.00,,,0.00,Wunderground v.1.15,2013-03-09 23:30:00,
2013-03-09 18:35:00,54.4,31.8,30.25,SE,129,0.0,0.0,42,0.00,,,0.00,Wunderground v.1.15,2013-03-09 23:35:00,
2013-03-09 18:41:00,53.8,31.8,30.25,SE,129,0.0,0.0,43,0.00,,,0.00,Wunderground v.1.15,2013-03-09 23:41:00,
2013-03-09 18:46:00,53.3,33.0,30.26,SE,129,0.0,0.0,46,0.00,,,0.00,Wunderground v.1.15,2013-03-09 23:46:00,
2013-03-09 18:52:00,52.7,33.0,30.26,SE,130,0.0,0.0,47,0.00,,,0.00,Wunderground v.1.15,2013-03-09 23:52:00,
2013-03-09 18:57:00,52.2,33.1,30.26,SE,129,0.0,0.0,48,0.00,,,0.00,Wunderground v.1.15,2013-03-09 23:57:00,
2013-03-09 19:02:00,51.8,33.2,30.26,SE,128,0.0,0.0,49,0.00,,,0.00,Wunderground v.1.15,2013-03-10 00:02:00,
2013-03-09 19:08:00,51.3,33.8,30.26,SE,129,0.0,0.0,51,0.00,,,0.00,Wunderground v.1.15,2013-03-10 00:08:00,
2013-03-09 19:13:00,50.8,33.3,30.27,SE,128,0.0,0.0,51,0.00,,,0.00,Wunderground v.1.15,2013-03-10 00:13:00,
2013-03-09 19:19:00,50.3,33.3,30.27,SE,128,0.0,0.0,52,0.00,,,0.00,Wunderground v.1.15,2013-03-10 00:19:00,
2013-03-09 19:24:00,49.9,33.4,30.27,SE,128,0.0,0.0,53,0.00,,,0.00,Wunderground v.1.15,2013-03-10 00:24:00,
2013-03-09 19:29:00,49.4,33.0,30.27,SE,129,0.0,0.0,53,0.00,,,0.00,Wunderground v.1.15,2013-03-10 00:29:00,
2013-03-09 19:35:00,48.9,33.4,30.27,SE,128,0.0,0.0,55,0.00,,,0.00,Wunderground v.1.15,2013-03-10 00:35:00,
2013-03-09 19:40:00,48.4,33.0,30.27,SE,128,0.0,0.0,55,0.00,,,0.00,Wunderground v.1.15,2013-03-10 00:40:00,
2013-03-09 19:45:00,48.0,33.0,30.27,SE,128,0.0,0.0,56,0.00,,,0.00,Wunderground v.1.15,2013-03-10 00:45:00,
2013-03-09 19:51:00,47.6,33.1,30.27,SE,129,0.0,0.0,57,0.00,,,0.00,Wunderground v.1.15,2013-03-10 00:51:00,
2013-03-09 19:56:00,47.3,33.7,30.27,SE,129,0.0,0.0,59,0.00,,,0.00,Wunderground v.1.15,2013-03-10 00:56:00,
2013-03-09 20:02:00,46.9,32.9,30.27,SE,129,0.0,0.0,58,0.00,,,0.00,Wunderground v.1.15,2013-03-10 01:02:00,
2013-03-09 20:07:00,46.6,33.0,30.27,SE,128,0.0,0.0,59,0.00,,,0.00,Wunderground v.1.15,2013-03-10 01:07:00,
2013-03-09 20:12:00,46.3,33.2,30.27,SE,128,0.0,0.0,60,0.00,,,0.00,Wunderground v.1.15,2013-03-10 01:12:00,
2013-03-09 20:18:00,45.9,32.8,30.27,SE,129,0.0,0.0,60,0.00,,,0.00,Wunderground v.1.15,2013-03-10 01:18:00,
2013-03-09 20:23:00,45.6,32.9,30.27,SE,128,0.0,0.0,61,0.00,,,0.00,Wunderground v.1.15,2013-03-10 01:23:00,
2013-03-09 20:29:00,45.3,33.0,30.28,SE,129,0.0,0.0,62,0.00,,,0.00,Wunderground v.1.15,2013-03-10 01:29:00,
2013-03-09 20:34:00,45.0,32.8,30.28,SE,129,0.0,0.0,62,0.00,,,0.00,Wunderground v.1.15,2013-03-10 01:34:00,
2013-03-09 20:40:00,44.8,32.6,30.28,SE,128,0.0,0.0,62,0.00,,,0.00,Wunderground v.1.15,2013-03-10 01:40:00,
2013-03-09 20:45:00,44.6,32.8,30.28,SE,130,0.0,0.0,63,0.00,,,0.00,Wunderground v.1.15,2013-03-10 01:45:00,
2013-03-09 20:50:00,44.4,32.6,30.28,SE,129,0.0,0.0,63,0.00,,,0.00,Wunderground v.1.15,2013-03-10 01:50:00,
2013-03-09 20:56:00,44.1,32.7,30.28,SE,128,0.0,0.0,64,0.00,,,0.00,Wunderground v.1.15,2013-03-10 01:56:00,
2013-03-09 21:01:00,43.9,33.3,30.28,SE,129,0.0,0.0,66,0.00,,,0.00,Wunderground v.1.15,2013-03-10 02:01:00,
2013-03-09 21:06:00,43.6,32.6,30.28,SE,129,0.0,0.0,65,0.00,,,0.00,Wunderground v.1.15,2013-03-10 02:06:00,
2013-03-09 21:12:00,43.4,32.4,30.28,SE,128,0.0,0.0,65,0.00,,,0.00,Wunderground v.1.15,2013-03-10 02:12:00,
2013-03-09 21:17:00,43.2,32.6,30.28,SE,128,0.0,0.0,66,0.00,,,0.00,Wunderground v.1.15,2013-03-10 02:17:00,
2013-03-09 21:22:00,43.0,32.4,30.28,SE,128,0.0,0.0,66,0.00,,,0.00,Wunderground v.1.15,2013-03-10 02:22:00,
2013-03-09 21:28:00,42.7,32.5,30.28,SE,129,0.0,0.0,67,0.00,,,0.00,Wunderground v.1.15,2013-03-10 02:28:00,
2013-03-09 21:33:00,42.5,32.7,30.28,SE,129,0.0,0.0,68,0.00,,,0.00,Wunderground v.1.15,2013-03-10 02:33:00,
2013-03-09 21:38:00,42.3,32.8,30.28,SE,130,0.0,0.0,69,0.00,,,0.00,Wunderground v.1.15,2013-03-10 02:38:00,
2013-03-09 21:44:00,42.0,32.6,30.28,SE,129,0.0,0.0,69,0.00,,,0.00,Wunderground v.1.15,2013-03-10 02:44:00,
2013-03-09 21:49:00,41.8,32.7,30.28,SE,128,0.0,0.0,70,0.00,,,0.00,Wunderground v.1.15,2013-03-10 02:49:00,
2013-03-09 21:54:00,41.6,32.5,30.28,SE,128,0.0,0.0,70,0.00,,,0.00,Wunderground v.1.15,2013-03-10 02:54:00,
2013-03-09 22:00:00,41.4,32.7,30.28,SE,128,0.0,0.0,71,0.00,,,0.00,Wunderground v.1.15,2013-03-10 03:00:00,
2013-03-09 22:05:00,41.2,32.9,30.29,SE,130,0.0,0.0,72,0.00,,,0.00,Wunderground v.1.15,2013-03-10 03:05:00,
2013-03-09 22:11:00,41.0,32.7,30.29,SE,129,0.0,0.0,72,0.00,,,0.00,Wunderground v.1.15,2013-03-10 03:11:00,
2013-03-09 22:16:00,40.8,32.5,30.29,SE,129,0.0,0.0,72,0.00,,,0.00,Wunderground v.1.15,2013-03-10 03:16:00,
2013-03-09 22:21:00,40.7,32.7,30.29,SE,128,0.0,0.0,73,0.00,,,0.00,Wunderground v.1.15,2013-03-10 03:21:00,
2013-03-09 22:27:00,40.6,33.0,30.29,SE,129,0.0,0.0,74,0.00,,,0.00,Wunderground v.1.15,2013-03-10 03:27:00,
2013-03-09 22:33:00,40.3,32.7,30.29,SE,128,0.0,0.0,74,0.00,,,0.00,Wunderground v.1.15,2013-03-10 03:33:00,
2013-03-09 22:39:00,40.1,32.5,30.29,SE,128,0.0,0.0,74,0.00,,,0.00,Wunderground v.1.15,2013-03-10 03:39:00,
2013-03-09 22:44:00,40.0,32.7,30.29,SE,128,0.0,0.0,75,0.00,,,0.00,Wunderground v.1.15,2013-03-10 03:44:00,
2013-03-09 22:49:00,39.8,32.5,30.29,SE,129,0.0,0.0,75,0.00,,,0.00,Wunderground v.1.15,2013-03-10 03:49:00,
2013-03-09 22:55:00,39.6,32.3,30.29,SE,128,0.0,0.0,75,0.00,,,0.00,Wunderground v.1.15,2013-03-10 03:55:00,
2013-03-09 23:00:00,39.5,32.6,30.29,SE,129,0.0,0.0,76,0.00,,,0.00,Wunderground v.1.15,2013-03-10 04:00:00,
2013-03-09 23:05:00,39.4,32.8,30.29,SE,128,0.0,0.0,77,0.00,,,0.00,Wunderground v.1.15,2013-03-10 04:05:00,
2013-03-09 23:11:00,39.2,32.6,30.29,SE,129,0.0,0.0,77,0.00,,,0.00,Wunderground v.1.15,2013-03-10 04:11:00,
2013-03-09 23:16:00,39.1,32.5,30.29,SE,128,0.0,0.0,77,0.00,,,0.00,Wunderground v.1.15,2013-03-10 04:16:00,
2013-03-09 23:22:00,39.0,32.7,30.29,SE,128,0.0,0.0,78,0.00,,,0.00,Wunderground v.1.15,2013-03-10 04:22:00,
2013-03-09 23:27:00,38.8,32.5,30.29,SE,130,0.0,0.0,78,0.00,,,0.00,Wunderground v.1.15,2013-03-10 04:27:00,
2013-03-09 23:32:00,38.7,32.4,30.29,SE,128,0.0,0.0,78,0.00,,,0.00,Wunderground v.1.15,2013-03-10 04:32:00,
2013-03-09 23:38:00,38.6,32.6,30.29,SE,128,0.0,0.0,79,0.00,,,0.00,Wunderground v.1.15,2013-03-10 04:38:00,
2013-03-09 23:43:00,38.5,32.6,30.30,SE,129,0.0,0.0,79,0.00,,,0.00,Wunderground v.1.15,2013-03-10 04:43:00,
2013-03-09 23:49:00,38.3,32.7,30.29,SE,129,0.0,0.0,80,0.00,,,0.00,Wunderground v.1.15,2013-03-10 04:49:00,
2013-03-09 23:54:00,38.2,32.6,30.30,SE,130,0.0,0.0,80,0.00,,,0.00,Wunderground v.1.15,2013-03-10 04:54:00,
2013-03-09 23:59:00,38.1,32.5,30.30,SE,129,0.0,0.0,80,0.00,,,0.00,Wunderground v.1.15,2013-03-10 04:59:00,